Regional Weather Roundup
Issued by NWS

Home | Current Version | Previous Version | Graphics & Text | Print | Product List | Glossary On
Versions: 1 2 3 4 5 6 7 8 9 10 11 12 13 14 15 16 17 18 19 20 21 22 23 24 25 26 27 28 29 30 31 32 33 34 35 36 37 38 39 40 41 42 43 44 45 46 47 48 49 50
000
ASUS44 KMEG 241400
RWRTN
TENNESSEE HOURLY STATE WEATHER ROUNDUP
NATIONAL WEATHER SERVICE MEMPHIS TN
900 AM CDT TUE MAY 24 2016

TNZ002-004-019-021-049-052-054-088>092-241500-
WEST TENNESSEE

CITY           SKY/WX    TMP DP  RH WIND       PRES   REMARKS
MEMPHIS INTL   PTSUNNY   78  58  49 S8        30.08R
NWS MEMPHIS      N/A     77 N/A N/A MISG        N/A
JACKSON        CLOUDY    72  58  61 S8        30.09R
DYERSBURG      SUNNY     75  57  53 S6        30.07S
UNION CITY     SUNNY     73  61  64 S7        30.07R
PARIS          MOSUNNY   66  59  77 SE6       30.09S
LEXINGTON      SUNNY     64  59  82 CALM      30.10R
$$

TNZ008-025-027-028-033-062-065-066-241500-
NORTH MIDDLE TENNESSEE

CITY           SKY/WX    TMP DP  RH WIND       PRES   REMARKS
NASHVILLE      PTSUNNY   71  51  49 S3        30.13S
CLARKSVILLE    MOSUNNY   72  55  55 SE5       30.10R
COOKEVILLE     SUNNY     72  55  56 S6        30.15R
CROSSVILLE     SUNNY     73  51  46 VRB5      30.19R
$$

TNZ061-075-076-078-094-096-097-241500-
SOUTH MIDDLE TENNESSEE

CITY           SKY/WX    TMP DP  RH WIND       PRES   REMARKS
TULLAHOMA      SUNNY     72  52  49 S6        30.16S
WINCHESTER     SUNNY     73  54  49 SE7       30.15R
MCMINNVILLE    SUNNY     72  57  60 CALM      30.15S
COLUMBIA       SUNNY     70  70 100 CALM      30.11S
SHELBYVILLE    SUNNY     73  54  49 SE6       30.15S
$$

TNZ017-018-042-046-047-241500-
NORTHEAST TENNESSEE

CITY           SKY/WX    TMP DP  RH WIND       PRES   REMARKS
TRI CITIES     SUNNY     62  52  69 CALM      30.19S
$$

TNZ012-013-036-069-073-074-241500-
CENTRAL EAST TENNESSEE

CITY           SKY/WX    TMP DP  RH WIND       PRES   REMARKS
KNOXVILLE      MOSUNNY   65  53  65 SE5       30.17S
OAK RIDGE      SUNNY     68  53  58 CALM      30.18R
GATLINBURG     SUNNY     64  52  63 CALM      30.17S
$$

TNZ083-085-099-241500-
SOUTHEAST TENNESSEE

CITY           SKY/WX    TMP DP  RH WIND       PRES   REMARKS
CHATTANOOGA    MOSUNNY   70  53  54 CALM      30.17R
$$

SKY/WX REPORTED AS FAIR MEANS FEW OR NO CLOUDS BELOW
12 THOUSAND FEET.





USA.gov is the U.S. government's official web portal to all federal, state and local government web resources and services.